| time (UTC) | temp F | wind direction | speed MPH | gust MPH | rain 1hr in | rain 24hr in | rain mn in | humidity % | barometer mb |
| 20260505010855 | 63 | 67 | 15.0 | 21.0 | 0.00 | 0.00 | 0.00 | 41 | 1010.2 |
| 20260505005853 | 65 | 69 | 9.0 | 24.0 | 0.00 | 0.00 | 0.00 | 39 | 1010.6 |
| 20260505004853 | 68 | 31 | 10.0 | 21.0 | 0.00 | 0.00 | 0.00 | 38 | 1010.2 |
| 20260505003851 | 70 | 16 | 12.0 | 16.0 | 0.00 | 0.00 | 0.00 | 37 | 1010.2 |
| 20260505003019 | 68 | 12 | 11.0 | 18.0 | 0.00 | 0.00 | 0.00 | 38 | 1010.6 |
| 20260505002520 | 67 | 12 | 10.0 | 15.0 | 0.00 | 0.00 | 0.00 | 38 | 1010.2 |
| 20260505001015 | 65 | 312 | 11.0 | 21.0 | 0.00 | 0.00 | 0.00 | 41 | 1009.8 |
| 20260505000012 | 66 | 340 | 11.0 | 15.0 | 0.00 | 0.00 | 0.00 | 42 | 1010.2 |
| 20260504235009 | 66 | 13 | 11.0 | 19.0 | 0.00 | 0.00 | 0.00 | 40 | 1009.8 |
| 20260504234005 | 67 | 4 | 12.0 | 16.0 | 0.00 | 0.00 | 0.00 | 40 | 1009.8 |
| 20260504233001 | 67 | 341 | 12.0 | 19.0 | 0.00 | 0.00 | 0.00 | 41 | 1009.8 |
| 20260504232001 | 67 | 335 | 13.0 | 19.0 | 0.00 | 0.00 | 0.00 | 41 | 1009.8 |
| 20260504231003 | 67 | 10 | 14.0 | 23.0 | 0.00 | 0.00 | 0.00 | 40 | 1009.5 |
| 20260504225954 | 67 | 342 | 15.0 | 19.0 | 0.00 | 0.00 | 0.00 | 40 | 1009.5 |
| 20260504225452 | 69 | 2 | 9.0 | 21.0 | 0.00 | 0.00 | 0.00 | 41 | 1009.8 |
| 20260504223945 | 70 | 351 | 11.0 | 17.0 | 0.00 | 0.00 | 0.00 | 38 | 1009.8 |
| 20260504222943 | 71 | 336 | 13.0 | 17.0 | 0.00 | 0.00 | 0.00 | 39 | 1009.8 |
| 20260504221941 | 71 | 347 | 12.0 | 18.0 | 0.00 | 0.00 | 0.00 | 37 | 1009.8 |
| 20260504220937 | 71 | 348 | 11.0 | 18.0 | 0.00 | 0.00 | 0.00 | 39 | 1009.8 |
| 20260504220436 | 71 | 322 | 6.0 | 16.0 | 0.00 | 0.00 | 0.00 | 40 | 1009.8 |
| 20260504214933 | 70 | 317 | 10.0 | 19.0 | 0.00 | 0.00 | 0.00 | 38 | 1009.8 |
| 20260504213927 | 71 | 357 | 13.0 | 18.0 | 0.00 | 0.00 | 0.00 | 40 | 1010.2 |
| 20260504212924 | 70 | 343 | 13.0 | 18.0 | 0.00 | 0.00 | 0.00 | 40 | 1010.2 |
| 20260504211923 | 71 | 305 | 12.0 | 17.0 | 0.00 | 0.00 | 0.00 | 39 | 1010.2 |
| 20260504210917 | 70 | 327 | 13.0 | 16.0 | 0.00 | 0.00 | 0.00 | 39 | 1010.2 |
| 20260504210421 | 71 | 13 | 9.0 | 15.0 | 0.00 | 0.00 | 0.00 | 37 | 1010.2 |
| 20260504204914 | 71 | 335 | 9.0 | 18.0 | 0.00 | 0.00 | 0.00 | 39 | 1010.2 |
| 20260504203910 | 71 | 345 | 9.0 | 15.0 | 0.00 | 0.00 | 0.00 | 40 | 1010.2 |
| 20260504202905 | 71 | 3 | 10.0 | 16.0 | 0.00 | 0.00 | 0.00 | 39 | 1010.6 |
| 20260504201907 | 70 | 316 | 10.0 | 15.0 | 0.00 | 0.00 | 0.00 | 40 | 1010.2 |
| 20260504200859 | 69 | 352 | 9.0 | 17.0 | 0.00 | 0.00 | 0.00 | 41 | 1010.6 |
| 20260504195858 | 69 | 13 | 8.0 | 15.0 | 0.00 | 0.00 | 0.00 | 42 | 1010.9 |
| 20260504194855 | 69 | 310 | 11.0 | 21.0 | 0.00 | 0.00 | 0.00 | 42 | 1010.9 |
| 20260504193851 | 68 | 342 | 12.0 | 16.0 | 0.00 | 0.00 | 0.00 | 40 | 1010.9 |
| 20260504192847 | 69 | 337 | 4.0 | 14.0 | 0.00 | 0.00 | 0.00 | 41 | 1010.9 |
| 20260504191847 | 69 | 340 | 5.0 | 16.0 | 0.00 | 0.00 | 0.00 | 40 | 1010.9 |
| 20260504190842 | 67 | 319 | 10.0 | 18.0 | 0.00 | 0.00 | 0.00 | 40 | 1011.4 |
| 20260504190339 | 67 | 12 | 9.0 | 17.0 | 0.00 | 0.00 | 0.00 | 43 | 1011.4 |
| 20260504184837 | 65 | 354 | 7.0 | 17.0 | 0.00 | 0.00 | 0.00 | 43 | 1010.9 |
| 20260504183838 | 65 | 5 | 10.0 | 16.0 | 0.00 | 0.00 | 0.00 | 45 | 1011.7 |
| 20260504183834 | 66 | 345 | 10.0 | 17.0 | 0.00 | 0.00 | 0.00 | 42 | 1011.4 |
| 20260504181828 | 65 | 340 | 10.0 | 18.0 | 0.00 | 0.00 | 0.00 | 44 | 1011.4 |
| 20260504180825 | 64 | 305 | 12.0 | 16.0 | 0.00 | 0.00 | 0.00 | 44 | 1011.7 |
| 20260504175821 | 63 | 295 | 12.0 | 17.0 | 0.00 | 0.00 | 0.00 | 44 | 1011.7 |
| 20260504174820 | 63 | 314 | 11.0 | 15.0 | 0.00 | 0.00 | 0.00 | 46 | 1011.7 |
| 20260504173815 | 63 | 345 | 9.0 | 19.0 | 0.00 | 0.00 | 0.00 | 47 | 1011.7 |
| 20260504172813 | 63 | 297 | 13.0 | 15.0 | 0.00 | 0.00 | 0.00 | 46 | 1012.2 |
| 20260504171811 | 63 | 311 | 10.0 | 13.0 | 0.00 | 0.00 | 0.00 | 47 | 1012.2 |
| 20260504170805 | 63 | 330 | 5.0 | 8.0 | 0.00 | 0.00 | 0.00 | 47 | 1012.2 |
| 20260504160245 | 61 | 341 | 2.0 | 7.0 | 0.00 | 0.00 | 0.00 | 54 | 1012.5 |
| 20260504150729 | 55 | 209 | 4.0 | 6.0 | 0.00 | 0.00 | 0.00 | 60 | 1012.2 |
| 20260504150229 | 54 | 203 | 1.0 | 4.0 | 0.00 | 0.00 | 0.00 | 61 | 1012.5 |
| 20260504140719 | 53 | 144 | 0.0 | 6.0 | 0.00 | 0.00 | 0.00 | 66 | 1012.5 |
| 20260504130710 | 45 | 151 | 1.0 | 6.0 | 0.00 | 0.00 | 0.00 | 72 | 1011.4 |
| 20260504120138 | 42 | 3 | 6.0 | 7.0 | 0.00 | 0.00 | 0.00 | 71 | 1010.9 |
| 20260504110653 | 44 | 34 | 12.0 | 16.0 | 0.00 | 0.00 | 0.00 | 75 | 1010.6 |
| 20260504110133 | 44 | 36 | 4.0 | 4.0 | 0.00 | 0.00 | 0.00 | 71 | 1010.6 |
| 20260504081630 | 47 | 94 | 5.0 | 10.0 | 0.00 | 0.00 | 0.00 | 69 | 1010.9 |
| 20260504080627 | 47 | 89 | 6.0 | 11.0 | 0.00 | 0.00 | 0.00 | 67 | 1010.9 |
| 20260504080114 | 48 | 101 | 9.0 | 11.0 | 0.00 | 0.00 | 0.00 | 67 | 1010.6 |
| 20260504045559 | 52 | 91 | 12.0 | 17.0 | 0.00 | 0.00 | 0.00 | 59 | 1010.6 |
| 20260504044600 | 53 | 106 | 11.0 | 14.0 | 0.00 | 0.00 | 0.00 | 58 | 1010.6 |
| 20260504043557 | 53 | 108 | 11.0 | 14.0 | 0.00 | 0.00 | 0.00 | 58 | 1010.6 |
| 20260504042555 | 51 | 99 | 7.0 | 10.0 | 0.00 | 0.00 | 0.00 | 58 | 1010.6 |
| 20260504041555 | 52 | 106 | 5.0 | 8.0 | 0.00 | 0.00 | 0.00 | 57 | 1010.6 |
| 20260504040552 | 51 | 118 | 5.0 | 8.0 | 0.00 | 0.00 | 0.00 | 59 | 1010.6 |
| 20260504035550 | 51 | 111 | 4.0 | 8.0 | 0.00 | 0.00 | 0.00 | 57 | 1010.6 |
| 20260504034551 | 53 | 116 | 3.0 | 4.0 | 0.00 | 0.00 | 0.00 | 52 | 1010.2 |
| 20260504033548 | 55 | 146 | 4.0 | 4.0 | 0.00 | 0.00 | 0.00 | 48 | 1010.2 |
| 20260504032546 | 57 | 100 | 2.0 | 2.0 | 0.00 | 0.00 | 0.00 | 45 | 1009.8 |
| 20260504031546 | 59 | 76 | 0.0 | 7.0 | 0.00 | 0.00 | 0.00 | 39 | 1009.8 |
| 20260504030543 | 60 | 268 | 5.0 | 8.0 | 0.00 | 0.00 | 0.00 | 36 | 1009.5 |
| 20260504025542 | 61 | 271 | 5.0 | 8.0 | 0.00 | 0.00 | 0.00 | 36 | 1009.5 |
| 20260504025035 | 61 | 276 | 6.0 | 8.0 | 0.00 | 0.00 | 0.00 | 36 | 1009.5 |
| 20260504023539 | 62 | 277 | 6.0 | 8.0 | 0.00 | 0.00 | 0.00 | 36 | 1009.5 |
| 20260504022537 | 64 | 279 | 6.0 | 10.0 | 0.00 | 0.00 | 0.00 | 35 | 1009.5 |
| 20260504021537 | 68 | 273 | 8.0 | 10.0 | 0.00 | 0.00 | 0.00 | 34 | 1009.5 |
| 20260504020534 | 70 | 259 | 6.0 | 10.0 | 0.00 | 0.00 | 0.00 | 33 | 1009.8 |
| 20260504015533 | 72 | 271 | 6.0 | 9.0 | 0.00 | 0.00 | 0.00 | 32 | 1009.8 |
| 20260504014534 | 73 | 276 | 5.0 | 9.0 | 0.00 | 0.00 | 0.00 | 32 | 1009.5 |
| 20260504013530 | 74 | 257 | 6.0 | 10.0 | 0.00 | 0.00 | 0.00 | 32 | 1009.8 |
| 20260504013004 | 74 | 260 | 7.0 | 14.0 | 0.00 | 0.00 | 0.00 | 31 | 1009.8 |